Location: Centerville
(32.8776°N, 96.6203°W)
Time: 05:40:37
(UTC+00:00)

SeaSat 1 - Pass Details

Date: 17 June 2021
Orbit: 745 x 746 km, 108.0° (Epoch: 29 July)

Event Time Altitude Azimuth Distance (km) Brightness Sun altitude
Rises 09:40:51 0° 13° (NNE) 3,192 6.7 -17.3°
Reaches altitude 10° 09:43:17 10° 4° (N) 2,265 5.6 -16.9°
Maximum altitude 09:47:42 34° 301° (WNW) 1,210 3.4 -16.2°
Enters shadow 09:50:00 22° 254° (WSW) 1,570 3.6 -15.9°
